Location: Lancaster
(34.6980°N, 118.1360°W)
Time: 18:00:32
(UTC-08:00)

ISS - Pass Details

Date: 13 November 2017
Orbit: 401 x 407 km, 51.6° (Epoch: 25 November)

Event Time Altitude Azimuth Distance (km) Brightness Sun altitude
Exits shadow 05:18:56 - 347° (NNW) 1,720 -0.9 -13.8°
Reaches altitude 10° 05:20:18 10° 6° (N) 1,453 -1.1 -13.5°
Maximum altitude 05:21:23 11° 26° (NNE) 1,380 -1.0 -13.3°
Drops below altitude 10° 05:22:27 10° 45° (NE) 1,451 -0.6 -13.1°
Sets 05:25:48 0° 82° (E) 2,308 1.4 -12.4°
